This is the latest recevied weather packets stored in our database for station/object OE-11073. If no packets are shown the sender has not sent any weather packets the latest 10 day(s).
| Time | Temp. | Humidity | Pressure | Rain* | Wind** | Luminosity | Snow |
|---|---|---|---|---|---|---|---|
| 1788062109 | 12.22° C | 94% | - | 0 mm | - | 0 W/m² | - |
| 1788061510 | 12.78° C | 94% | - | 0 mm | - | 0 W/m² | - |
| 1788060909 | 13.33° C | 91% | - | 0 mm | - | 0 W/m² | - |
| 1788060309 | 12.78° C | 93% | - | 0 mm | - | 0 W/m² | - |
| 1788059483 | 13.33° C | 93% | - | 0 mm | - | 0 W/m² | - |
| 1788059110 | 13.33° C | 92% | - | 0 mm | - | 0 W/m² | - |
| 1788058510 | 13.33° C | 92% | - | 0 mm | - | 0 W/m² | - |
| 1788057683 | 13.33° C | 93% | - | 0 mm | - | 0 W/m² | - |
| 1788057310 | 13.33° C | 94% | - | 0 mm | - | 0 W/m² | - |
| 1788056710 | 13.89° C | 91% | - | 0 mm | - | 0 W/m² | - |
| 1788055883 | 13.89° C | 93% | - | 0 mm | - | 0 W/m² | - |
| 1788055510 | 13.89° C | 93% | - | 0 mm | - | 0 W/m² | - |
| 1788054909 | 13.89° C | 91% | - | 0 mm | - | 0 W/m² | - |
| 1788054083 | 13.89° C | 93% | - | 0 mm | - | 0 W/m² | - |
| 1788053709 | 14.44° C | 93% | - | 0 mm | - | 0 W/m² | - |
| 1788053110 | 14.44° C | 92% | - | 0 mm | - | 0 W/m² | - |
| 1788052282 | 14.44° C | 92% | - | 0 mm | - | 0 W/m² | - |
| 1788051910 | 14.44° C | 91% | - | 0 mm | - | 0 W/m² | - |
| 1788051310 | 14.44° C | 92% | - | 0 mm | - | 0 W/m² | - |
| 1788050482 | 14.44° C | 90% | - | 0 mm | - | 0 W/m² | - |
| 1788050110 | 14.44° C | 91% | - | 0 mm | - | 0 W/m² | - |
| 1788049510 | 14.44° C | 90% | - | 0 mm | - | 0 W/m² | - |
| 1788048682 | 14.44° C | 91% | - | 0 mm | - | 0 W/m² | - |
| 1788048310 | 15° C | 89% | - | 0 mm | - | 0 W/m² | - |
| 1788047710 | 14.44° C | 89% | - | 0 mm | - | 0 W/m² | - |
* Rain latest hour (hover to see other rain measurements)
** Current wind speed in m/s (hover to see current wind gust speed)